EW3711 Weather Reports


time (UTC)temp
F
wind
direction
speed
knots
gust
knots
rain 1hr
in
rain 24hr
in
rain mn
in
humidity
%
barometer
mb
20260507155418 45 251 0.9 7.0 0.00 0.00 0.00 42 1010.3
20260507154915 45 217 2.6 7.0 0.00 0.00 0.00 42 1010.3
20260507154412 45 207 1.7 7.0 0.00 0.00 0.00 42 1010.3
20260507153909 45 212 0.0 7.0 0.00 0.00 0.00 43 1010.3
20260507153405 44 227 0.0 7.0 0.00 0.00 0.00 44 1010.3
20260507152902 44 252 0.0 4.3 0.00 0.00 0.00 43 1010.3
20260507152358 44 300 0.0 3.5 0.00 0.00 0.00 45 1010.3
20260507151854 44 285 0.0 3.5 0.00 0.00 0.00 46 1010.3
20260507151351 43 287 0.9 6.1 0.00 0.00 0.00 46 1010.3
20260507150848 44 226 0.9 6.1 0.00 0.00 0.00 46 1010.3
20260507150344 44 283 0.9 5.2 0.00 0.00 0.00 46 1010.3
20260507145840 43 308 0.9 5.2 0.00 0.00 0.00 48 1010.3
20260507145338 43 226 0.9 4.3 0.00 0.00 0.00 47 1010.3
20260507144834 43 336 0.9 2.6 0.00 0.00 0.00 47 1010.3
20260507144331 43 321 0.0 2.6 0.00 0.00 0.00 48 1010.3
20260507143828 43 336 0.0 0.0 0.00 0.00 0.00 48 1010.3
20260507143325 43 257 0.0 0.0 0.00 0.00 0.00 50 1010.3
20260507142821 43 257 0.0 0.0 0.00 0.00 0.00 49 1010.3
20260507142317 43 155 0.0 0.0 0.00 0.00 0.00 53 1010.3
20260507141814 42 75 0.0 0.0 0.00 0.00 0.00 52 1010.3
20260507141311 42 75 0.0 0.0 0.00 0.00 0.00 56 1010.3
20260507140807 41 126 0.0 0.0 0.00 0.00 0.00 55 1010.3
20260507140305 41 115 0.0 0.0 0.00 0.00 0.00 57 1010.3
20260507135802 40 65 0.0 0.0 0.00 0.00 0.00 58 1010.3
20260507135259 40 53 0.0 0.0 0.00 0.00 0.00 59 1010.3
20260507134755 39 70 0.0 0.0 0.00 0.00 0.00 64 1010.3
20260507134252 37 8 0.0 0.0 0.00 0.00 0.00 66 1010.3
20260507133748 36 8 0.0 0.0 0.00 0.00 0.00 69 1010.3
20260507133244 34 8 0.0 0.0 0.00 0.00 0.00 70 1010.3
20260507132742 34 8 0.0 0.0 0.00 0.00 0.00 73 1010.3
20260507132239 33 8 0.0 0.0 0.00 0.00 0.00 78 1010.3
20260507131736 32 8 0.0 0.0 0.00 0.00 0.00 79 1010.3
20260507131233 31 8 0.0 0.0 0.00 0.00 0.00 81 1010.3
20260507130729 30 8 0.0 0.0 0.00 0.00 0.00 82 1010.3
20260507130227 29 8 0.0 0.0 0.00 0.00 0.00 82 1010.3
20260507125726 29 8 0.0 0.0 0.00 0.00 0.00 83 1010.3
20260507125223 28 7 0.0 0.0 0.00 0.00 0.00 84 1010.3
20260507124720 28 8 0.0 0.0 0.00 0.00 0.00 85 1010.3
20260507124217 27 7 0.0 0.0 0.00 0.00 0.00 85 1010.3
20260507123715 27 7 0.0 0.0 0.00 0.00 0.00 85 1010.3
20260507123212 27 7 0.0 0.0 0.00 0.00 0.00 85 1010.3
20260507122707 26 8 0.0 0.0 0.00 0.00 0.00 85 1010.3
20260507122203 26 8 0.0 0.0 0.00 0.00 0.00 85 1010.3
20260507121659 25 8 0.0 0.0 0.00 0.00 0.00 85 1010.3
20260507121155 25 8 0.0 0.0 0.00 0.00 0.00 85 1010.3
20260507120651 24 8 0.0 0.0 0.00 0.00 0.00 84 1010.3
20260507120148 24 8 0.0 0.0 0.00 0.00 0.00 82 1010.3
20260507115644 23 8 0.0 0.0 0.00 0.00 0.00 83 1010.0
20260507115140 23 8 0.0 0.0 0.00 0.00 0.00 83 1010.0
20260507114636 23 8 0.0 0.0 0.00 0.00 0.00 83 1010.0
20260507114134 23 8 0.0 0.0 0.00 0.00 0.00 83 1010.0
20260507113631 23 8 0.0 0.0 0.00 0.00 0.00 83 1010.0
20260507113128 23 8 0.0 0.0 0.00 0.00 0.00 84 1010.0
20260507112626 22 8 0.0 0.0 0.00 0.00 0.00 84 1010.0
20260507112122 22 8 0.0 0.0 0.00 0.00 0.00 84 1010.0
20260507111619 22 8 0.0 0.0 0.00 0.00 0.00 84 1010.0
20260507111116 22 8 0.0 0.0 0.00 0.00 0.00 84 1010.0
20260507110612 22 8 0.0 0.0 0.00 0.00 0.00 83 1010.0
20260507110109 22 8 0.0 0.0 0.00 0.00 0.00 82 1010.0
20260507105606 23 8 0.0 0.0 0.00 0.00 0.00 83 1010.0
20260507105101 22 8 0.0 0.0 0.00 0.00 0.00 82 1010.0
20260507104559 23 8 0.0 0.0 0.00 0.00 0.00 82 1010.0
20260507104055 23 8 0.0 0.0 0.00 0.00 0.00 81 1010.0
20260507103552 23 8 0.0 0.0 0.00 0.00 0.00 81 1010.0
20260507103049 23 8 0.0 0.0 0.00 0.00 0.00 80 1010.0
20260507102545 23 8 0.0 0.0 0.00 0.00 0.00 81 1010.0
20260507102041 23 8 0.0 0.0 0.00 0.00 0.00 80 1010.0
20260507101537 24 8 0.0 0.0 0.00 0.00 0.00 80 1010.0
20260507101033 24 8 0.0 0.0 0.00 0.00 0.00 80 1010.0
20260507100531 24 8 0.0 0.0 0.00 0.00 0.00 79 1010.0
20260507100029 24 8 0.0 0.0 0.00 0.00 0.00 79 1010.0
20260507095527 24 8 0.0 0.0 0.00 0.00 0.00 80 1010.0
20260507095023 24 8 0.0 0.0 0.00 0.00 0.00 79 1010.0
20260507094519 24 8 0.0 0.0 0.00 0.00 0.00 79 1010.0
20260507094016 24 8 0.0 0.0 0.00 0.00 0.00 79 1010.0
20260507093513 24 8 0.0 0.0 0.00 0.00 0.00 79 1010.0
20260507093012 24 8 0.0 0.0 0.00 0.00 0.00 80 1010.0
20260507092508 24 8 0.0 0.0 0.00 0.00 0.00 80 1010.0
20260507092005 23 8 0.0 0.0 0.00 0.00 0.00 80 1010.0
20260507091502 24 8 0.0 0.0 0.00 0.00 0.00 78 1010.0
20260507090957 24 8 0.0 0.0 0.00 0.00 0.00 79 1010.0
20260507090453 24 8 0.0 0.0 0.00 0.00 0.00 80 1010.0
20260507085950 24 356 0.0 0.0 0.00 0.00 0.00 78 1010.0
20260507085448 24 356 0.0 0.0 0.00 0.00 0.00 78 1010.0
20260507084944 24 356 0.0 0.0 0.00 0.00 0.00 78 1010.0
20260507084441 24 356 0.0 0.0 0.00 0.00 0.00 77 1010.0
20260507083938 25 356 0.0 0.0 0.00 0.00 0.00 78 1010.0
20260507083435 25 356 0.0 0.0 0.00 0.00 0.00 77 1010.0
20260507082931 25 356 0.0 0.0 0.00 0.00 0.00 77 1010.0
20260507082427 25 356 0.0 0.0 0.00 0.00 0.00 77 1010.0
20260507081924 25 356 0.0 0.0 0.00 0.00 0.00 76 1010.0
20260507081420 26 356 0.0 0.0 0.00 0.00 0.00 74 1010.0
20260507080917 26 356 0.0 0.0 0.00 0.00 0.00 75 1010.3
20260507080413 26 356 0.0 0.0 0.00 0.00 0.00 75 1010.0
20260507075908 26 356 0.0 0.0 0.00 0.00 0.00 75 1010.0
20260507075405 26 356 0.0 0.0 0.00 0.00 0.00 75 1010.3
20260507074901 26 356 0.0 0.0 0.00 0.00 0.00 75 1010.3
20260507074358 26 356 0.0 0.0 0.00 0.00 0.00 75 1010.3
20260507073856 26 356 0.0 0.0 0.00 0.00 0.00 74 1010.3
20260507073352 26 356 0.0 0.0 0.00 0.00 0.00 75 1010.3
20260507072849 26 356 0.0 0.0 0.00 0.00 0.00 75 1010.3
20260507072347 26 339 0.0 0.0 0.00 0.00 0.00 75 1010.3
20260507071844 26 339 0.0 0.0 0.00 0.00 0.00 75 1010.3
20260507071341 26 342 0.0 0.0 0.00 0.00 0.00 76 1010.3
20260507070837 26 358 0.0 0.0 0.00 0.00 0.00 76 1010.3
20260507070335 26 359 0.0 0.0 0.00 0.00 0.00 77 1010.3
20260507065831 26 18 0.0 0.0 0.00 0.00 0.00 77 1010.3
20260507065328 26 2 0.0 0.0 0.00 0.00 0.00 76 1010.3
20260507064825 26 23 0.0 0.0 0.00 0.00 0.00 77 1010.3
20260507064324 26 23 0.0 0.0 0.00 0.00 0.00 75 1010.3
20260507063821 27 23 0.0 0.0 0.00 0.00 0.00 75 1010.3
20260507063318 27 255 0.0 0.0 0.00 0.00 0.00 75 1010.3
20260507062815 26 300 0.0 0.0 0.00 0.00 0.00 76 1010.3
20260507062312 27 285 0.0 0.0 0.00 0.00 0.00 76 1010.7
20260507061810 27 16 0.0 0.0 0.00 0.00 0.00 75 1010.3
20260507061308 28 16 0.0 0.0 0.00 0.00 0.00 73 1010.3
20260507060806 28 356 0.0 0.0 0.00 0.00 0.00 74 1010.3
20260507060302 28 353 0.0 0.0 0.00 0.00 0.00 73 1010.3
20260507055759 29 29 0.0 0.0 0.00 0.00 0.00 72 1010.3
20260507055254 29 356 0.0 0.0 0.00 0.00 0.00 72 1010.7
20260507054750 30 293 0.9 5.2 0.00 0.00 0.00 70 1010.7
20260507054247 30 38 1.7 5.2 0.00 0.00 0.00 70 1010.3
20260507053744 30 356 0.9 4.3 0.00 0.00 0.00 70 1010.3
20260507053242 31 25 0.9 4.3 0.00 0.00 0.00 68 1010.3
20260507052741 31 338 0.9 4.3 0.00 0.00 0.00 68 1010.7
20260507052237 31 354 0.0 2.6 0.00 0.00 0.00 69 1010.7
20260507051735 31 345 0.9 5.2 0.00 0.00 0.00 69 1010.3
20260507051231 31 25 2.6 6.1 0.00 0.00 0.00 69 1010.3
20260507050728 31 11 0.9 6.1 0.00 0.00 0.00 71 1010.3
20260507050225 30 1 0.0 2.6 0.00 0.00 0.00 72 1010.7
20260507045722 30 20 0.0 0.0 0.00 0.00 0.00 72 1010.7
20260507045218 30 10 0.0 3.5 0.00 0.00 0.00 73 1010.7
20260507044715 30 280 0.0 3.5 0.00 0.00 0.00 71 1010.7
20260507044212 30 354 0.0 3.5 0.00 0.00 0.00 74 1010.7
20260507043708 30 344 0.0 0.0 0.00 0.00 0.00 75 1010.7
20260507043205 29 13 0.0 0.0 0.00 0.00 0.00 74 1010.7
20260507042702 30 6 0.0 0.0 0.00 0.00 0.00 73 1011.0
20260507042156 30 5 0.0 0.0 0.00 0.00 0.00 71 1011.0
20260507041654 31 347 0.0 0.0 0.00 0.00 0.00 70 1011.0
20260507041150 31 345 0.0 0.0 0.00 0.00 0.00 70 1011.0
20260507040647 31 342 0.0 0.0 0.00 0.00 0.00 70 1011.0
20260507040144 32 355 0.0 0.0 0.00 0.00 0.00 68 1011.0
20260507035639 32 7 0.9 4.3 0.00 0.00 0.00 67 1011.0
20260507035136 33 9 0.9 4.3 0.00 0.00 0.00 66 1011.5
20260507034633 33 21 0.9 3.5 0.00 0.00 0.00 65 1011.5
20260507034130 34 330 0.0 3.5 0.00 0.00 0.00 64 1011.5
20260507033629 34 342 0.9 5.2 0.00 0.00 0.00 63 1011.5
20260507033125 35 345 0.9 5.2 0.00 0.00 0.00 61 1011.5
20260507032623 35 333 0.0 4.3 0.00 0.00 0.00 60 1011.5
20260507032119 36 306 0.0 0.0 0.00 0.00 0.00 58 1011.5
20260507031615 35 337 0.0 3.5 0.00 0.00 0.00 59 1011.0
20260507031112 35 336 0.0 3.5 0.00 0.00 0.00 59 1011.5
20260507030609 36 55 0.0 0.0 0.00 0.00 0.00 59 1011.0
20260507030107 36 58 0.0 0.0 0.00 0.00 0.00 61 1011.0
20260507025604 36 124 0.0 0.0 0.00 0.00 0.00 60 1011.0
20260507025101 36 124 0.0 0.0 0.00 0.00 0.00 60 1011.0
20260507024559 36 124 0.0 0.0 0.00 0.00 0.00 61 1011.0
20260507024056 36 124 0.0 0.0 0.00 0.00 0.00 60 1011.0
20260507023551 37 124 0.0 0.0 0.00 0.00 0.00 57 1011.0
20260507023049 37 130 0.0 0.0 0.00 0.00 0.00 55 1011.0
20260507022545 38 135 0.0 0.0 0.00 0.00 0.00 56 1011.0
20260507022040 38 139 0.0 0.0 0.00 0.00 0.00 56 1011.0
20260507021537 39 158 0.0 1.7 0.00 0.00 0.00 56 1011.0
20260507021034 40 134 0.0 1.7 0.00 0.00 0.00 54 1011.0
20260507020531 40 137 0.0 0.0 0.00 0.00 0.00 51 1011.0
20260507020027 41 141 0.0 0.0 0.00 0.00 0.00 49 1011.0
20260507015526 42 139 0.0 0.0 0.00 0.00 0.00 46 1011.0
20260507015023 43 154 0.0 0.0 0.00 0.00 0.00 42 1011.0
20260507014520 43 143 0.0 0.0 0.00 0.00 0.00 42 1011.0
20260507014015 44 141 0.0 0.0 0.00 0.00 0.00 41 1011.0
20260507013512 44 160 0.0 0.0 0.00 0.00 0.00 40 1011.0
20260507013010 45 204 0.0 0.0 0.00 0.00 0.00 39 1011.0
20260507012506 46 207 0.0 0.0 0.00 0.00 0.00 40 1011.0
20260507012003 46 207 0.0 0.0 0.00 0.00 0.00 41 1011.0
20260507011500 46 207 0.0 0.0 0.00 0.00 0.00 44 1011.0
20260507010956 45 208 0.0 0.0 0.00 0.00 0.00 43 1011.0
20260507010450 44 207 0.0 0.0 0.00 0.00 0.00 43 1011.0
20260507005947 44 207 0.0 0.0 0.00 0.00 0.00 43 1011.0
20260507005444 44 214 0.0 0.0 0.00 0.00 0.00 44 1011.0
20260507004941 44 214 0.0 0.0 0.00 0.00 0.00 42 1011.5
20260507004438 44 226 0.0 0.0 0.00 0.00 0.00 43 1011.5
20260507003936 44 216 0.0 0.0 0.00 0.00 0.00 43 1011.5
20260507003430 44 221 0.0 7.0 0.00 0.00 0.00 43 1011.5
20260507002926 44 224 1.7 7.8 0.00 0.00 0.00 41 1011.5
20260507002422 45 269 3.5 9.6 0.00 0.00 0.00 40 1011.5
20260507001920 45 222 4.3 9.6 0.00 0.00 0.00 42 1011.5
20260507001416 45 255 4.3 14.8 0.00 0.00 0.00 42 1011.5
20260507000914 45 220 4.3 14.8 0.00 0.00 0.00 42 1011.5
20260507000409 45 229 3.5 9.6 0.00 0.00 0.00 41 1011.5
20260506235905 45 206 4.3 10.4 0.00 0.00 0.00 41 1011.5
20260506235403 45 219 4.3 10.4 0.00 0.00 0.00 41 1011.5
20260506234858 45 198 4.3 8.7 0.00 0.00 0.00 42 1011.5
20260506234356 46 226 4.3 10.4 0.00 0.00 0.00 42 1011.8
20260506233854 45 195 4.3 12.2 0.00 0.00 0.00 41 1011.8
20260506233349 45 220 4.3 12.2 0.00 0.00 0.00 41 1011.8
20260506232847 45 213 4.3 11.3 0.00 0.00 0.00 41 1011.8
20260506232342 45 210 3.5 9.6 0.00 0.00 0.00 42 1011.8
20260506231839 45 256 2.6 8.7 0.00 0.00 0.00 43 1011.8
20260506231337 46 209 2.6 9.6 0.00 0.00 0.00 43 1011.8
20260506230834 46 180 1.7 10.4 0.00 0.00 0.00 42 1011.8
20260506230330 46 167 1.7 10.4 0.00 0.00 0.00 43 1011.8
20260506225826 46 222 0.9 6.1 0.00 0.00 0.00 44 1012.1
20260506225324 46 198 0.9 6.1 0.00 0.00 0.00 44 1011.8
20260506224820 45 204 0.0 4.3 0.00 0.00 0.00 47 1012.1
20260506224318 44 228 0.9 5.2 0.00 0.00 0.00 45 1012.1
20260506223814 44 210 3.5 10.4 0.00 0.00 0.00 45 1012.1
20260506223309 44 247 4.3 10.4 0.00 0.00 0.00 46 1012.1
20260506222807 44 195 2.6 10.4 0.00 0.00 0.00 45 1012.1
20260506222305 44 231 1.7 8.7 0.00 0.00 0.00 47 1012.1
20260506221800 44 219 2.6 8.7 0.00 0.00 0.00 45 1012.1
20260506221258 44 221 3.5 8.7 0.00 0.00 0.00 45 1012.1
20260506220755 45 214 4.3 10.4 0.00 0.00 0.00 45 1012.1
20260506220255 45 201 3.5 8.7 0.00 0.00 0.00 47 1012.5
20260506215753 44 224 4.3 10.4 0.00 0.00 0.00 46 1012.5
20260506215248 44 210 5.2 10.4 0.00 0.00 0.00 46 1012.5
20260506214745 45 250 4.3 11.3 0.00 0.00 0.00 47 1012.5
20260506214242 44 208 6.1 13.0 0.00 0.00 0.00 48 1012.5
20260506213740 44 229 6.1 13.0 0.00 0.00 0.00 48 1012.8
20260506213232 43 232 6.1 13.0 0.00 0.00 0.00 48 1012.8
20260506212729 43 217 7.8 13.0 0.00 0.00 0.00 47 1012.8
20260506212224 43 224 7.8 13.9 0.00 0.00 0.00 47 1012.8
20260506211720 44 219 5.2 13.9 0.00 0.00 0.00 49 1012.8
20260506211216 44 213 4.3 13.0 0.00 0.00 0.00 48 1013.2
20260506210713 43 226 5.2 13.0 0.00 0.00 0.00 48 1013.2
20260506210210 43 221 4.3 13.0 0.00 0.00 0.00 50 1013.2
20260506205707 43 227 4.3 13.0 0.00 0.00 0.00 49 1013.2
20260506205202 43 212 4.3 13.0 0.00 0.00 0.00 50 1013.2
20260506204700 42 225 3.5 9.6 0.00 0.00 0.00 50 1013.2
20260506204156 42 243 2.6 9.6 0.00 0.00 0.00 52 1013.2
20260506203655 42 253 4.3 11.3 0.00 0.00 0.00 52 1013.2
20260506203152 42 195 6.1 11.3 0.00 0.00 0.00 53 1013.2
20260506202650 42 228 4.3 11.3 0.00 0.00 0.00 52 1013.6
20260506202145 42 226 3.5 11.3 0.00 0.00 0.00 54 1013.6
20260506201642 42 255 4.3 11.3 0.00 0.00 0.00 52 1013.6
20260506201138 42 200 3.5 10.4 0.00 0.00 0.00 53 1013.6
20260506200635 42 251 2.6 8.7 0.00 0.00 0.00 54 1013.6
20260506200132 42 220 2.6 8.7 0.00 0.00 0.00 54 1013.6
20260506195629 42 239 2.6 8.7 0.00 0.00 0.00 55 1013.6
20260506195125 42 179 3.5 10.4 0.00 0.00 0.00 54 1013.6
20260506194623 41 243 2.6 12.2 0.00 0.00 0.00 55 1013.9
20260506194119 41 221 3.5 10.4 0.00 0.00 0.00 55 1013.9
20260506193617 41 236 2.6 10.4 0.00 0.00 0.00 56 1013.9
20260506193114 41 215 2.6 10.4 0.00 0.00 0.00 57 1013.9
20260506192611 41 241 4.3 12.2 0.00 0.00 0.00 57 1013.9
20260506192106 41 245 3.5 12.2 0.00 0.00 0.00 58 1013.9
20260506191603 40 195 3.5 11.3 0.00 0.00 0.00 57 1013.9
20260506191059 40 241 2.6 13.0 0.00 0.00 0.00 57 1013.9
20260506190557 40 216 5.2 13.0 0.00 0.00 0.00 58 1013.9
20260506190053 40 217 6.1 11.3 0.00 0.00 0.00 57 1013.9
20260506185551 40 227 4.3 11.3 0.00 0.00 0.00 58 1013.9
20260506185047 40 223 3.5 10.4 0.00 0.00 0.00 58 1013.9
20260506184544 40 245 4.3 8.7 0.00 0.00 0.00 57 1013.9
20260506184042 40 250 5.2 14.8 0.00 0.00 0.00 57 1013.9
20260506183537 40 225 6.1 14.8 0.00 0.00 0.00 57 1014.3
20260506183034 40 218 6.1 13.0 0.00 0.00 0.00 58 1014.3
20260506182532 40 250 6.1 13.9 0.00 0.00 0.00 58 1014.3
20260506182029 40 222 7.0 13.9 0.00 0.00 0.00 57 1014.3
20260506181527 40 227 6.1 13.0 0.00 0.00 0.00 59 1014.3
20260506181023 39 259 6.1 13.9 0.00 0.00 0.00 60 1014.3
20260506180520 39 173 7.8 14.8 0.00 0.00 0.00 59 1014.3
20260506180016 39 200 7.8 14.8 0.00 0.00 0.00 60 1014.3
20260506175513 39 221 6.1 13.9 0.00 0.00 0.00 59 1014.6
20260506175009 39 205 5.2 12.2 0.00 0.00 0.00 60 1014.6
20260506174508 39 213 6.1 12.2 0.00 0.00 0.00 60 1014.6
20260506174004 39 197 6.1 13.9 0.00 0.00 0.00 61 1014.6
20260506173502 39 214 7.0 13.9 0.00 0.00 0.00 59 1014.6
20260506172958 39 210 7.0 14.8 0.00 0.00 0.00 60 1014.6
20260506172456 39 220 6.1 14.8 0.00 0.00 0.00 60 1014.6
20260506171952 39 243 5.2 12.2 0.00 0.00 0.00 59 1014.6
20260506171449 40 198 5.2 13.0 0.00 0.00 0.00 59 1014.6
20260506170947 40 242 6.1 13.0 0.00 0.00 0.00 59 1014.6
20260506170443 39 231 7.8 18.2 0.00 0.00 0.00 60 1014.6
20260506165936 39 202 7.8 18.2 0.00 0.00 0.00 59 1015.0
20260506165434 39 268 7.0 13.9 0.00 0.00 0.00 62 1015.0
20260506164930 38 215 7.0 13.9 0.00 0.00 0.00 62 1015.0
20260506164427 38 200 7.0 13.0 0.00 0.00 0.00 63 1015.0
20260506163925 38 224 7.0 14.8 0.00 0.00 0.00 62 1015.0
20260506163425 38 221 8.7 14.8 0.00 0.00 0.00 63 1015.0
20260506162920 38 201 7.8 13.9 0.00 0.00 0.00 63 1015.0
20260506162418 38 218 8.7 15.6 0.00 0.00 0.00 62 1015.3
20260506161910 38 216 8.7 15.6 0.00 0.00 0.00 62 1015.3
20260506161408 38 211 7.0 13.9 0.00 0.00 0.00 62 1015.3
20260506160905 38 237 5.2 12.2 0.00 0.00 0.00 63 1015.3
20260506160402 39 212 5.2 13.0 0.00 0.00 0.00 65 1015.3
20260506155900 38 212 6.1 13.0 0.00 0.00 0.00 64 1015.3